CW8192 Weather Reports


Display with metric or nautical units.
time (UTC)temp
F
wind
direction
speed
MPH
gust
MPH
rain 1hr
in
rain 24hr
in
rain mn
in
humidity
%
barometer
mb
20260903202205 82 279 3.0 6.0 0.00 0.05 0.05 77 1011.3
20260903201705 81 310 2.0 3.0 0.00 0.05 0.05 78 1011.3
20260903201205 81 349 1.0 3.0 0.00 0.05 0.05 81 1011.2
20260903200705 80 106 0.0 2.0 0.00 0.05 0.05 84 1011.4
20260903200205 80 76 0.0 0.0 0.00 0.05 0.05 82 1011.4
20260903195705 80 111 0.0 1.0 0.00 0.05 0.05 82 1011.6
20260903195204 80 178 1.0 3.0 0.00 0.05 0.05 80 1011.5
20260903194705 80 118 1.0 3.0 0.00 0.05 0.05 80 1011.5
20260903194205 80 230 1.0 2.0 0.00 0.05 0.05 78 1011.6
20260903193706 80 257 2.0 3.0 0.00 0.05 0.05 78 1011.4
20260903193204 81 239 3.0 7.0 0.00 0.05 0.05 78 1011.6
20260903192705 81 269 1.0 3.0 0.00 0.05 0.05 79 1011.6
20260903191705 81 252 1.0 3.0 0.00 0.05 0.05 80 1011.7
20260903191204 79 276 1.0 2.0 0.00 0.05 0.05 81 1011.8
20260903190706 78 250 1.0 2.0 0.00 0.05 0.05 84 1011.8
20260903190205 78 286 1.0 2.0 0.00 0.05 0.05 84 1011.9
20260903185705 78 286 1.0 2.0 0.00 0.05 0.05 84 1012.0
20260903185205 77 286 0.0 1.0 0.00 0.05 0.05 83 1011.9
20260903184704 78 286 1.0 1.0 0.00 0.05 0.05 84 1012.0
20260903183204 79 22 0.0 1.0 0.00 0.05 0.05 83 1012.1
20260903182205 79 22 0.0 2.0 0.00 0.05 0.05 80 1012.1
20260903181706 79 60 1.0 2.0 0.00 0.05 0.05 79 1012.1
20260903181204 80 238 1.0 3.0 0.00 0.05 0.05 80 1012.1
20260903180705 79 232 0.0 1.0 0.00 0.05 0.05 79 1012.1
20260903175705 78 239 1.0 2.0 0.00 0.05 0.05 80 1012.2
20260903175205 78 273 1.0 2.0 0.00 0.05 0.05 81 1012.3
20260903174704 78 273 2.0 3.0 0.00 0.05 0.05 80 1012.3
20260903174205 78 273 1.0 1.0 0.00 0.05 0.05 82 1012.4
20260903173205 78 243 1.0 3.0 0.00 0.05 0.05 81 1012.4
20260903172705 78 279 0.0 0.0 0.00 0.05 0.05 81 1012.5
20260903172205 78 272 0.0 0.0 0.00 0.05 0.05 82 1012.6
20260903171705 77 235 0.0 0.0 0.00 0.05 0.05 83 1012.6
20260903171205 77 244 0.0 3.0 0.00 0.05 0.05 81 1012.6
20260903170705 77 155 1.0 2.0 0.00 0.05 0.05 83 1012.7
20260903170204 77 275 0.0 1.0 0.00 0.05 0.05 83 1012.7
20260903165704 77 284 0.0 0.0 0.00 0.05 0.05 83 1012.7
20260903165204 76 284 0.0 1.0 0.00 0.05 0.05 81 1012.7
20260903164705 76 284 1.0 2.0 0.00 0.05 0.05 83 1012.8
20260903164204 76 284 0.0 1.0 0.00 0.05 0.05 82 1012.6
20260903163705 76 257 0.0 2.0 0.00 0.05 0.05 82 1012.8
20260903163205 76 234 0.0 1.0 0.00 0.05 0.05 84 1012.8
20260903162704 76 172 1.0 3.0 0.00 0.05 0.05 83 1012.9
20260903162204 76 202 1.0 3.0 0.00 0.05 0.05 85 1012.8
20260903161705 75 220 1.0 2.0 0.00 0.05 0.05 85 1012.9
20260903161204 75 245 1.0 2.0 0.00 0.05 0.05 86 1013.0
20260903160704 75 234 0.0 1.0 0.00 0.05 0.05 86 1013.0
20260903160205 75 237 1.0 2.0 0.00 0.05 0.05 85 1013.1
20260903155705 75 230 0.0 1.0 0.00 0.05 0.05 86 1013.1
20260903154704 74 231 1.0 3.0 0.00 0.05 0.05 87 1013.0
20260903154205 74 205 1.0 2.0 0.00 0.05 0.05 86 1013.0
20260903153205 74 228 0.0 3.0 0.00 0.05 0.05 88 1013.1
20260903152705 74 180 1.0 3.0 0.00 0.05 0.05 87 1013.1
20260903152205 74 234 1.0 2.0 0.00 0.05 0.05 86 1013.0
20260903151704 74 227 1.0 2.0 0.00 0.05 0.05 86 1013.1
20260903151205 74 102 1.0 2.0 0.00 0.05 0.05 87 1013.1
20260903150705 74 224 1.0 2.0 0.00 0.05 0.05 87 1013.1
20260903150206 74 224 0.0 2.0 0.00 0.05 0.05 86 1013.1
20260903144706 74 194 2.0 6.0 0.00 0.05 0.05 87 1013.0
20260903144205 73 216 1.0 6.0 0.00 0.05 0.05 88 1013.0
20260903143205 73 180 2.0 6.0 0.00 0.05 0.05 87 1013.2
20260903142705 73 203 1.0 3.0 0.00 0.05 0.05 88 1013.2
20260903142204 72 179 1.0 3.0 0.00 0.05 0.05 88 1013.2
20260903141705 73 241 2.0 6.0 0.00 0.05 0.05 89 1013.3
20260903141205 72 218 1.0 6.0 0.00 0.05 0.05 90 1013.3
20260903140705 72 142 2.0 7.0 0.00 0.05 0.05 89 1013.2
20260903140205 71 226 1.0 3.0 0.00 0.05 0.05 89 1013.2
20260903135705 71 211 2.0 6.0 0.00 0.05 0.05 90 1013.2
20260903135206 71 201 2.0 5.0 0.00 0.05 0.05 90 1013.1
20260903134704 71 226 1.0 3.0 0.00 0.05 0.05 91 1013.2
20260903134205 70 208 1.0 5.0 0.00 0.05 0.05 92 1013.2
20260903133705 70 215 1.0 3.0 0.00 0.05 0.05 91 1013.3
20260903133204 70 213 2.0 5.0 0.00 0.05 0.05 90 1013.3
20260903132705 70 187 1.0 7.0 0.00 0.05 0.05 91 1013.3
20260903132205 70 153 1.0 3.0 0.00 0.05 0.05 91 1013.3
20260903131704 70 223 1.0 2.0 0.00 0.05 0.05 92 1013.3
20260903131205 69 199 2.0 6.0 0.00 0.05 0.05 93 1013.2
20260903130704 69 240 1.0 5.0 0.00 0.05 0.05 92 1013.4
20260903125705 69 163 2.0 6.0 0.00 0.05 0.05 92 1013.5
20260903124704 69 219 2.0 7.0 0.00 0.05 0.05 94 1013.5
20260903124204 68 266 1.0 6.0 0.00 0.05 0.05 94 1013.5
20260903123205 67 221 1.0 7.0 0.00 0.05 0.05 95 1013.6
20260903122705 67 201 0.0 2.0 0.00 0.05 0.05 95 1013.6
20260903122204 67 201 0.0 3.0 0.00 0.05 0.05 95 1013.6
20260903121705 67 173 0.0 1.0 0.00 0.05 0.05 95 1013.6
20260903121206 67 151 0.0 2.0 0.00 0.05 0.05 95 1013.6
20260903120205 67 170 2.0 10.0 0.00 0.05 0.05 95 1013.7
20260903115704 67 202 1.0 3.0 0.00 0.05 0.05 95 1013.8
20260903115205 67 205 2.0 6.0 0.00 0.05 0.05 95 1013.8
20260903114705 67 194 1.0 3.0 0.00 0.05 0.05 95 1013.8
20260903114204 67 2 1.0 2.0 0.00 0.05 0.05 95 1013.8
20260903113704 67 78 2.0 5.0 0.00 0.05 0.05 95 1013.7
20260903113204 67 338 0.0 3.0 0.00 0.05 0.05 95 1013.8
20260903112204 67 159 1.0 5.0 0.00 0.05 0.05 95 1013.7
20260903111704 67 154 1.0 3.0 0.00 0.05 0.05 95 1013.7
20260903111204 67 160 1.0 5.0 0.00 0.05 0.05 95 1013.9
20260903110705 66 140 0.0 8.0 0.00 0.05 0.05 95 1013.9
20260903110204 66 169 1.0 3.0 0.00 0.05 0.05 95 1013.8
20260903105704 66 197 0.0 6.0 0.00 0.05 0.05 95 1013.8
20260903105204 66 5 0.0 2.0 0.00 0.05 0.05 95 1013.8
20260903104704 66 204 0.0 2.0 0.00 0.05 0.05 95 1013.9
20260903104205 66 214 1.0 3.0 0.00 0.05 0.05 95 1013.9
20260903103205 66 207 0.0 0.0 0.00 0.05 0.05 95 1013.8
20260903102704 66 233 0.0 3.0 0.00 0.05 0.05 95 1013.8
20260903101704 66 179 1.0 3.0 0.00 0.05 0.05 95 1013.6
20260903101204 66 224 1.0 3.0 0.00 0.05 0.05 95 1013.6
20260903100705 66 164 1.0 3.0 0.00 0.05 0.05 95 1013.4
20260903100204 66 186 3.0 6.0 0.00 0.05 0.05 95 1013.5
20260903095704 66 138 1.0 3.0 0.00 0.05 0.05 95 1013.5
20260903095205 66 151 1.0 3.0 0.00 0.05 0.05 95 1013.4
20260903094704 66 152 3.0 9.0 0.00 0.05 0.05 95 1013.4
20260903093704 66 260 1.0 7.0 0.00 0.05 0.05 95 1013.5
20260903093204 66 224 1.0 5.0 0.00 0.05 0.05 95 1013.4
20260903092205 66 181 1.0 5.0 0.00 0.05 0.05 95 1013.4
20260903091704 66 179 1.0 6.0 0.00 0.05 0.05 95 1013.5
20260903091204 66 200 2.0 6.0 0.00 0.05 0.05 95 1013.5
20260903090705 66 226 2.0 3.0 0.00 0.05 0.05 95 1013.7
20260903090205 66 285 2.0 7.0 0.00 0.05 0.05 95 1013.7
20260903085704 66 189 3.0 10.0 0.00 0.05 0.05 95 1013.6
20260903085205 66 205 2.0 8.0 0.00 0.05 0.05 95 1013.7
20260903084204 66 227 2.0 3.0 0.00 0.05 0.05 95 1013.9
20260903083704 66 191 1.0 3.0 0.00 0.05 0.05 95 1013.8
20260903083204 66 217 2.0 5.0 0.00 0.05 0.05 95 1013.7
20260903082204 66 221 2.0 6.0 0.00 0.05 0.05 94 1013.7
20260903081704 66 250 2.0 6.0 0.00 0.05 0.05 95 1013.8
20260903081205 66 231 3.0 9.0 0.00 0.05 0.05 94 1013.9
20260903080705 66 226 2.0 8.0 0.00 0.05 0.05 94 1014.0
20260903080204 66 240 2.0 6.0 0.00 0.05 0.05 94 1014.0
20260903075704 66 239 1.0 3.0 0.00 0.05 0.05 94 1014.0
20260903074204 66 220 2.0 3.0 0.00 0.05 0.05 95 1013.8
20260903073704 66 175 3.0 6.0 0.01 0.05 0.05 95 1013.7
20260903073204 65 297 2.0 12.0 0.01 0.05 0.05 95 1013.8
20260903072204 65 238 4.0 13.0 0.01 0.05 0.05 95 1013.9
20260903071204 65 226 3.0 8.0 0.01 0.05 0.05 95 1013.7
20260903070704 65 217 5.0 10.0 0.01 0.05 0.05 96 1013.7
20260903070204 65 214 2.0 7.0 0.01 0.05 0.05 95 1013.7
20260903065705 64 166 2.0 9.0 0.01 0.05 0.05 95 1013.7
20260903065205 64 189 3.0 10.0 0.01 0.05 0.05 95 1013.7
20260903064704 64 200 3.0 9.0 0.01 0.05 0.05 96 1013.7
20260903064204 64 221 2.0 7.0 0.01 0.05 0.05 96 1013.8
20260903063705 64 220 3.0 12.0 0.00 0.04 0.04 96 1013.7
20260903063205 64 188 3.0 7.0 0.00 0.04 0.04 96 1013.7
20260903062705 64 215 3.0 7.0 0.00 0.04 0.04 96 1013.6
20260903062205 64 190 3.0 8.0 0.00 0.04 0.04 96 1013.6
20260903061704 64 309 5.0 16.0 0.00 0.04 0.04 96 1013.5
20260903061204 64 205 3.0 7.0 0.00 0.04 0.04 96 1013.5
20260903060704 64 176 4.0 12.0 0.00 0.04 0.04 95 1013.5
20260903060204 64 221 2.0 6.0 0.01 0.04 0.04 95 1013.9
20260903055705 64 179 2.0 10.0 0.01 0.04 0.04 95 1014.0
20260903055204 63 199 3.0 10.0 0.01 0.04 0.04 95 1013.9
20260903053704 63 201 6.0 14.0 0.01 0.04 0.04 95 1013.9
20260903053204 63 218 5.0 14.0 0.02 0.04 0.04 95 1014.2
20260903052704 63 194 3.0 10.0 0.02 0.04 0.04 95 1014.5
20260903052204 63 183 4.0 12.0 0.02 0.04 0.04 95 1014.4
20260903051705 63 168 5.0 20.0 0.02 0.04 0.04 95 1014.2
20260903051204 63 167 6.0 17.0 0.03 0.04 0.04 95 1014.2
20260903050705 63 223 6.0 20.0 0.03 0.04 0.04 96 1014.5
20260903050205 63 220 3.0 21.0 0.03 0.03 0.03 94 1014.6
20260903045704 63 229 5.0 14.0 0.03 0.03 0.03 94 1014.4
20260903045204 63 156 3.0 12.0 0.03 0.03 0.03 94 1014.4
20260903044704 63 223 5.0 14.0 0.03 0.03 0.03 94 1014.5
20260903043704 63 162 5.0 12.0 0.03 0.03 0.03 93 1014.7
20260903043204 63 158 4.0 10.0 0.02 0.02 0.02 93 1014.9
20260903042705 63 191 5.0 12.0 0.02 0.02 0.02 93 1015.0
20260903042204 63 173 4.0 12.0 0.02 0.02 0.02 92 1015.1
20260903041705 63 174 3.0 18.0 0.02 0.02 0.02 91 1015.3
20260903041205 64 195 5.0 12.0 0.01 0.01 0.01 90 1015.5
20260903040704 64 179 4.0 12.0 0.01 0.01 0.01 89 1015.6
20260903040204 64 249 3.0 7.0 0.00 0.00 0.00 88 1015.9
20260903035704 64 296 3.0 10.0 0.00 0.00 0.00 88 1016.2
20260903035205 64 194 2.0 12.0 0.00 0.00 0.00 87 1015.9
20260903034704 64 225 3.0 5.0 0.00 0.00 0.00 86 1016.0
20260903034204 65 223 3.0 6.0 0.00 0.00 0.00 86 1015.9
20260903033204 65 219 3.0 9.0 0.00 0.00 0.00 84 1015.8
20260903032704 65 218 3.0 12.0 0.00 0.00 0.00 84 1015.8
20260903032204 65 206 3.0 9.0 0.00 0.00 0.00 83 1016.0
20260903031704 65 200 3.0 9.0 0.00 0.00 0.00 83 1016.0
20260903031204 65 201 2.0 9.0 0.00 0.00 0.00 83 1015.8
20260903030706 65 291 2.0 10.0 0.00 0.00 0.00 83 1015.7
20260903030204 65 167 3.0 8.0 0.00 0.00 0.00 83 1015.6
20260903025204 66 154 4.0 12.0 0.00 0.00 0.00 82 1015.6
20260903024204 66 180 3.0 10.0 0.00 0.00 0.00 83 1016.0
20260903023204 66 205 5.0 12.0 0.00 0.00 0.00 82 1016.2
20260903022704 66 218 5.0 9.0 0.00 0.00 0.00 82 1016.2
20260903022204 66 196 4.0 13.0 0.00 0.00 0.00 81 1016.3
20260903021705 66 228 3.0 12.0 0.00 0.00 0.00 81 1016.6
20260903021204 66 207 4.0 12.0 0.00 0.00 0.00 81 1016.8
20260903020704 66 206 6.0 13.0 0.00 0.00 0.00 81 1016.9
20260903020204 66 242 3.0 8.0 0.00 0.00 0.00 81 1016.9
20260903015705 66 265 4.0 9.0 0.00 0.00 0.00 81 1017.1
20260903015205 66 184 5.0 12.0 0.00 0.00 0.00 81 1017.1
20260903014704 66 206 6.0 12.0 0.00 0.00 0.00 81 1017.0
20260903014204 66 196 3.0 12.0 0.00 0.00 0.00 80 1017.0
20260903013204 66 218 6.0 12.0 0.00 0.00 0.00 79 1017.3
20260903012204 66 350 2.0 10.0 0.00 0.00 0.00 80 1017.8
20260903011704 66 206 2.0 6.0 0.00 0.00 0.00 79 1017.9
20260903011204 66 208 4.0 13.0 0.00 0.00 0.00 79 1017.6
20260903010705 66 214 3.0 10.0 0.00 0.00 0.00 79 1017.6
20260903010205 67 203 4.0 7.0 0.00 0.00 0.00 79 1017.7
20260903005704 67 211 3.0 7.0 0.00 0.00 0.00 78 1017.7
20260903005204 67 269 2.0 10.0 0.00 0.00 0.00 78 1017.7
20260903004704 67 213 2.0 9.0 0.00 0.00 0.00 78 1017.6
20260903004203 67 234 3.0 8.0 0.00 0.00 0.00 78 1017.5
20260903003704 67 245 3.0 8.0 0.00 0.00 0.00 78 1017.4
20260903003204 67 232 2.0 6.0 0.00 0.00 0.00 78 1017.6
20260903002704 67 243 3.0 6.0 0.00 0.00 0.00 78 1017.4
20260903002204 67 234 3.0 6.0 0.00 0.00 0.00 79 1016.8
20260903001704 67 225 4.0 12.0 0.00 0.00 0.00 79 1016.8
20260903001204 67 215 2.0 6.0 0.00 0.00 0.00 80 1016.7
20260903000704 67 200 3.0 8.0 0.00 0.00 0.00 80 1016.3
20260903000204 67 236 5.0 15.0 0.00 0.00 0.00 80 1016.1
20260902235704 67 259 3.0 12.0 0.00 0.00 0.00 81 1016.4
20260902235204 67 200 5.0 12.0 0.00 0.00 0.00 82 1016.2
20260902234704 67 212 5.0 13.0 0.00 0.00 0.00 83 1016.1
20260902234204 67 241 6.0 12.0 0.00 0.01 0.00 83 1016.2
20260902233704 67 265 5.0 12.0 0.00 0.01 0.00 83 1016.4
20260902232704 67 212 3.0 12.0 0.00 0.01 0.00 83 1016.9
20260902231204 67 228 4.0 12.0 0.00 0.01 0.00 83 1017.4
20260902230704 67 186 3.0 10.0 0.00 0.01 0.00 84 1017.4
20260902230205 67 217 2.0 6.0 0.00 0.01 0.00 83 1017.5
20260902225704 67 211 3.0 9.0 0.00 0.01 0.00 83 1017.4
20260902224203 67 181 4.0 7.0 0.00 0.01 0.00 83 1017.6
20260902223704 68 190 3.0 7.0 0.00 0.01 0.00 83 1017.9
20260902222704 68 210 2.0 7.0 0.00 0.01 0.00 83 1018.2
20260902222203 68 238 3.0 7.0 0.00 0.01 0.00 82 1018.3
20260902221705 68 226 5.0 12.0 0.00 0.01 0.00 82 1018.2
20260902221205 68 234 4.0 10.0 0.00 0.01 0.00 81 1018.3
20260902220205 69 173 2.0 7.0 0.00 0.01 0.00 82 1018.3
20260902215705 69 221 3.0 7.0 0.00 0.01 0.00 81 1018.1
20260902215205 69 161 3.0 7.0 0.00 0.01 0.00 82 1018.0
20260902214205 69 195 4.0 10.0 0.00 0.01 0.00 81 1018.1
20260902213705 69 139 4.0 9.0 0.00 0.01 0.00 82 1018.2
20260902213205 69 171 3.0 10.0 0.00 0.01 0.00 82 1018.5
20260902211705 69 212 4.0 10.0 0.00 0.01 0.00 81 1018.7
20260902211205 69 207 2.0 6.0 0.00 0.01 0.00 80 1018.6
20260902210706 69 226 2.0 5.0 0.00 0.01 0.00 83 1018.5
20260902210205 69 136 3.0 7.0 0.00 0.01 0.00 81 1018.3
20260902205705 69 234 1.0 9.0 0.00 0.01 0.00 82 1018.3
20260902204705 69 181 4.0 10.0 0.00 0.01 0.00 81 1018.1
20260902203204 69 211 3.0 5.0 0.00 0.01 0.00 80 1018.6
20260902202705 70 221 2.0 5.0 0.00 0.01 0.00 80 1018.5